| time (UTC) | temp F | wind direction | speed MPH | gust MPH | rain 1hr in | rain 24hr in | rain mn in | humidity % | barometer mb |
| 20260901133348 | 79 | 71 | 1.0 | 2.0 | 0.00 | 0.00 | 0.00 | 85 | 1017.9 |
| 20260901132847 | 79 | 60 | 1.0 | 3.0 | 0.00 | 0.00 | 0.00 | 86 | 1017.9 |
| 20260901132342 | 79 | 27 | 1.0 | 2.0 | 0.00 | 0.00 | 0.00 | 87 | 1017.9 |
| 20260901131841 | 78 | 18 | 0.0 | 2.0 | 0.00 | 0.00 | 0.00 | 87 | 1017.8 |
| 20260901131340 | 78 | 48 | 1.0 | 2.0 | 0.00 | 0.00 | 0.00 | 87 | 1017.6 |
| 20260901130835 | 78 | 42 | 1.0 | 2.0 | 0.00 | 0.00 | 0.00 | 88 | 1017.8 |
| 20260901130330 | 78 | 338 | 1.0 | 2.0 | 0.00 | 0.00 | 0.00 | 88 | 1017.7 |
| 20260901125829 | 78 | 331 | 0.0 | 1.0 | 0.00 | 0.00 | 0.00 | 88 | 1017.6 |
| 20260901125328 | 77 | 346 | 1.0 | 2.0 | 0.00 | 0.00 | 0.00 | 88 | 1017.5 |
| 20260901124823 | 77 | 39 | 0.0 | 1.0 | 0.00 | 0.00 | 0.00 | 88 | 1017.3 |
| 20260901124318 | 77 | 333 | 0.0 | 1.0 | 0.00 | 0.00 | 0.00 | 88 | 1017.3 |
| 20260901123817 | 77 | 352 | 0.0 | 0.0 | 0.00 | 0.00 | 0.00 | 88 | 1017.4 |
| 20260901123313 | 77 | 50 | 0.0 | 0.0 | 0.00 | 0.00 | 0.00 | 88 | 1017.4 |
| 20260901122812 | 77 | 57 | 0.0 | 1.0 | 0.00 | 0.00 | 0.00 | 88 | 1017.3 |
| 20260901122312 | 77 | 19 | 0.0 | 1.0 | 0.00 | 0.00 | 0.00 | 88 | 1017.1 |
| 20260901121811 | 77 | 32 | 0.0 | 1.0 | 0.00 | 0.00 | 0.00 | 88 | 1017.2 |
| 20260901121307 | 77 | 15 | 0.0 | 0.0 | 0.00 | 0.00 | 0.00 | 88 | 1016.9 |
| 20260901120807 | 77 | 50 | 0.0 | 1.0 | 0.00 | 0.00 | 0.00 | 88 | 1017.1 |
| 20260901120301 | 77 | 44 | 0.0 | 1.0 | 0.00 | 0.00 | 0.00 | 87 | 1017.0 |
| 20260901115756 | 78 | 31 | 0.0 | 2.0 | 0.00 | 0.00 | 0.00 | 87 | 1017.2 |
| 20260901115252 | 78 | 230 | 0.0 | 0.0 | 0.00 | 0.00 | 0.00 | 87 | 1017.0 |
| 20260901114749 | 78 | 336 | 0.0 | 0.0 | 0.00 | 0.00 | 0.00 | 87 | 1017.0 |
| 20260901114244 | 78 | 25 | 0.0 | 0.0 | 0.00 | 0.00 | 0.00 | 87 | 1017.1 |
| 20260901113742 | 78 | 66 | 0.0 | 1.0 | 0.00 | 0.00 | 0.00 | 87 | 1017.0 |
| 20260901113238 | 78 | 89 | 0.0 | 1.0 | 0.00 | 0.00 | 0.00 | 87 | 1017.1 |
| 20260901112737 | 78 | 110 | 0.0 | 0.0 | 0.00 | 0.00 | 0.00 | 87 | 1017.1 |
| 20260901112237 | 78 | 212 | 0.0 | 1.0 | 0.00 | 0.00 | 0.00 | 87 | 1017.0 |
| 20260901111732 | 78 | 326 | 0.0 | 0.0 | 0.00 | 0.00 | 0.00 | 87 | 1016.9 |
| 20260901111226 | 78 | 253 | 0.0 | 0.0 | 0.00 | 0.00 | 0.00 | 86 | 1017.0 |
| 20260901110725 | 78 | 17 | 0.0 | 0.0 | 0.00 | 0.00 | 0.00 | 86 | 1016.9 |
| 20260901110221 | 78 | 54 | 0.0 | 1.0 | 0.00 | 0.00 | 0.00 | 86 | 1016.9 |
| 20260901105718 | 79 | 269 | 0.0 | 0.0 | 0.00 | 0.00 | 0.00 | 86 | 1017.1 |
| 20260901105217 | 79 | 63 | 0.0 | 1.0 | 0.00 | 0.00 | 0.00 | 86 | 1016.9 |
| 20260901104713 | 79 | 322 | 0.0 | 0.0 | 0.00 | 0.00 | 0.00 | 86 | 1016.7 |
| 20260901104208 | 79 | 91 | 0.0 | 1.0 | 0.00 | 0.00 | 0.00 | 86 | 1016.8 |
| 20260901103707 | 79 | 25 | 0.0 | 1.0 | 0.00 | 0.00 | 0.00 | 86 | 1016.8 |
| 20260901103203 | 79 | 96 | 2.0 | 2.0 | 0.00 | 0.00 | 0.00 | 85 | 1016.8 |
| 20260901102703 | 79 | 93 | 1.0 | 2.0 | 0.00 | 0.00 | 0.00 | 85 | 1016.6 |
| 20260901102203 | 79 | 99 | 0.0 | 1.0 | 0.00 | 0.00 | 0.00 | 85 | 1016.8 |
| 20260901101659 | 79 | 52 | 0.0 | 1.0 | 0.00 | 0.00 | 0.00 | 85 | 1016.6 |
| 20260901101159 | 79 | 89 | 0.0 | 1.0 | 0.00 | 0.00 | 0.00 | 85 | 1016.7 |
| 20260901100659 | 79 | 19 | 0.0 | 1.0 | 0.00 | 0.00 | 0.00 | 85 | 1016.6 |
| 20260901100153 | 80 | 290 | 0.0 | 1.0 | 0.00 | 0.00 | 0.00 | 85 | 1016.6 |
| 20260901095652 | 80 | 24 | 1.0 | 2.0 | 0.00 | 0.00 | 0.00 | 85 | 1016.8 |
| 20260901095149 | 80 | 28 | 2.0 | 2.0 | 0.00 | 0.00 | 0.00 | 85 | 1016.9 |
| 20260901094644 | 80 | 55 | 0.0 | 1.0 | 0.00 | 0.00 | 0.00 | 84 | 1016.7 |
| 20260901094145 | 80 | 164 | 0.0 | 2.0 | 0.00 | 0.00 | 0.00 | 84 | 1017.0 |
| 20260901093645 | 80 | 84 | 1.0 | 2.0 | 0.00 | 0.00 | 0.00 | 84 | 1016.9 |
| 20260901093144 | 80 | 98 | 0.0 | 2.0 | 0.00 | 0.00 | 0.00 | 83 | 1016.9 |
| 20260901092640 | 80 | 45 | 1.0 | 2.0 | 0.00 | 0.00 | 0.00 | 84 | 1016.9 |
| 20260901092136 | 80 | 139 | 0.0 | 1.0 | 0.00 | 0.00 | 0.00 | 83 | 1017.0 |
| 20260901091631 | 80 | 326 | 0.0 | 0.0 | 0.00 | 0.00 | 0.00 | 83 | 1017.1 |
| 20260901091126 | 80 | 27 | 0.0 | 0.0 | 0.00 | 0.00 | 0.00 | 83 | 1016.9 |
| 20260901090621 | 80 | 13 | 0.0 | 0.0 | 0.00 | 0.00 | 0.00 | 82 | 1017.2 |
| 20260901090116 | 81 | 309 | 0.0 | 0.0 | 0.00 | 0.00 | 0.00 | 81 | 1017.1 |
| 20260901085612 | 81 | 37 | 0.0 | 2.0 | 0.00 | 0.00 | 0.00 | 81 | 1017.0 |
| 20260901085108 | 81 | 224 | 0.0 | 1.0 | 0.00 | 0.00 | 0.00 | 81 | 1016.9 |
| 20260901084604 | 81 | 32 | 0.0 | 0.0 | 0.00 | 0.00 | 0.00 | 80 | 1016.9 |
| 20260901084100 | 81 | 49 | 0.0 | 2.0 | 0.00 | 0.00 | 0.00 | 80 | 1016.9 |
| 20260901083559 | 81 | 49 | 0.0 | 1.0 | 0.00 | 0.00 | 0.00 | 80 | 1016.9 |
| 20260901083058 | 81 | 11 | 0.0 | 2.0 | 0.00 | 0.00 | 0.00 | 80 | 1016.8 |
| 20260901082553 | 81 | 50 | 0.0 | 0.0 | 0.00 | 0.00 | 0.00 | 80 | 1016.8 |
| 20260901082049 | 81 | 61 | 0.0 | 1.0 | 0.00 | 0.00 | 0.00 | 79 | 1016.8 |
| 20260901081543 | 81 | 55 | 0.0 | 0.0 | 0.00 | 0.00 | 0.00 | 79 | 1017.0 |
| 20260901081038 | 82 | 32 | 0.0 | 0.0 | 0.00 | 0.00 | 0.00 | 78 | 1016.9 |
| 20260901080537 | 82 | 33 | 0.0 | 0.0 | 0.00 | 0.00 | 0.00 | 78 | 1016.8 |
| 20260901080031 | 82 | 49 | 0.0 | 2.0 | 0.00 | 0.00 | 0.00 | 78 | 1016.9 |
| 20260901075527 | 82 | 326 | 1.0 | 1.0 | 0.00 | 0.00 | 0.00 | 77 | 1016.9 |
| 20260901075026 | 82 | 75 | 0.0 | 0.0 | 0.00 | 0.00 | 0.00 | 76 | 1016.8 |
| 20260901074526 | 82 | 211 | 0.0 | 1.0 | 0.00 | 0.00 | 0.00 | 76 | 1016.9 |
| 20260901074021 | 82 | 50 | 0.0 | 0.0 | 0.00 | 0.00 | 0.00 | 75 | 1016.9 |
| 20260901073519 | 82 | 50 | 0.0 | 0.0 | 0.00 | 0.00 | 0.00 | 75 | 1016.9 |
| 20260901073018 | 82 | 52 | 0.0 | 0.0 | 0.00 | 0.00 | 0.00 | 76 | 1017.0 |
| 20260901072514 | 82 | 45 | 1.0 | 1.0 | 0.00 | 0.00 | 0.00 | 75 | 1016.8 |
| 20260901072009 | 82 | 37 | 0.0 | 0.0 | 0.00 | 0.00 | 0.00 | 74 | 1016.9 |
| 20260901071508 | 82 | 196 | 0.0 | 1.0 | 0.00 | 0.00 | 0.00 | 74 | 1016.8 |
| 20260901071007 | 83 | 299 | 0.0 | 0.0 | 0.00 | 0.00 | 0.00 | 73 | 1016.9 |
| 20260901070502 | 83 | 13 | 0.0 | 2.0 | 0.00 | 0.00 | 0.00 | 74 | 1016.9 |
| 20260901070001 | 83 | 41 | 0.0 | 2.0 | 0.00 | 0.00 | 0.00 | 74 | 1016.8 |
| 20260901065457 | 83 | 113 | 0.0 | 1.0 | 0.00 | 0.00 | 0.00 | 72 | 1016.9 |
| 20260901064951 | 83 | 69 | 0.0 | 1.0 | 0.00 | 0.00 | 0.00 | 72 | 1016.8 |
| 20260901064448 | 83 | 154 | 0.0 | 1.0 | 0.00 | 0.00 | 0.00 | 70 | 1017.0 |
| 20260901063945 | 83 | 75 | 0.0 | 0.0 | 0.00 | 0.00 | 0.00 | 70 | 1016.9 |
| 20260901063441 | 83 | 44 | 0.0 | 1.0 | 0.00 | 0.00 | 0.00 | 69 | 1016.8 |
| 20260901062937 | 84 | 25 | 0.0 | 2.0 | 0.00 | 0.00 | 0.00 | 69 | 1016.7 |
| 20260901062433 | 84 | 12 | 0.0 | 1.0 | 0.00 | 0.00 | 0.00 | 69 | 1016.7 |
| 20260901061928 | 84 | 343 | 1.0 | 3.0 | 0.00 | 0.00 | 0.00 | 69 | 1016.8 |
| 20260901061424 | 84 | 75 | 0.0 | 1.0 | 0.00 | 0.00 | 0.00 | 68 | 1016.7 |
| 20260901060919 | 84 | 0 | 0.0 | 1.0 | 0.00 | 0.00 | 0.00 | 69 | 1016.8 |
| 20260901060415 | 84 | 195 | 0.0 | 2.0 | 0.00 | 0.00 | 0.00 | 69 | 1016.9 |
| 20260901055914 | 84 | 352 | 0.0 | 2.0 | 0.00 | 0.00 | 0.00 | 67 | 1016.6 |
| 20260901055410 | 84 | 7 | 2.0 | 2.0 | 0.00 | 0.00 | 0.00 | 67 | 1016.7 |
| 20260901054907 | 85 | 15 | 0.0 | 1.0 | 0.00 | 0.00 | 0.00 | 66 | 1016.5 |
| 20260901054404 | 85 | 55 | 0.0 | 2.0 | 0.00 | 0.00 | 0.00 | 66 | 1016.6 |
| 20260901053859 | 85 | 269 | 0.0 | 0.0 | 0.00 | 0.00 | 0.00 | 68 | 1016.4 |
| 20260901053355 | 85 | 23 | 0.0 | 1.0 | 0.00 | 0.00 | 0.00 | 68 | 1016.4 |
| 20260901052850 | 85 | 135 | 0.0 | 2.0 | 0.00 | 0.00 | 0.00 | 68 | 1016.4 |
| 20260901052345 | 85 | 322 | 0.0 | 0.0 | 0.00 | 0.00 | 0.00 | 67 | 1016.3 |
| 20260901051844 | 85 | 353 | 0.0 | 0.0 | 0.00 | 0.00 | 0.00 | 66 | 1016.4 |
| 20260901051339 | 85 | 347 | 0.0 | 2.0 | 0.00 | 0.00 | 0.00 | 66 | 1016.3 |
| 20260901050834 | 85 | 205 | 0.0 | 0.0 | 0.00 | 0.00 | 0.00 | 66 | 1016.3 |
| 20260901050330 | 85 | 354 | 0.0 | 0.0 | 0.00 | 0.00 | 0.00 | 64 | 1016.4 |
| 20260901045830 | 86 | 212 | 0.0 | 2.0 | 0.00 | 0.00 | 0.00 | 63 | 1016.5 |
| 20260901045330 | 86 | 2 | 0.0 | 2.0 | 0.00 | 0.00 | 0.00 | 63 | 1016.2 |
| 20260901044825 | 86 | 49 | 0.0 | 1.0 | 0.00 | 0.00 | 0.00 | 63 | 1016.3 |
| 20260901044322 | 86 | 5 | 0.0 | 1.0 | 0.00 | 0.00 | 0.00 | 63 | 1016.2 |
| 20260901043817 | 86 | 22 | 0.0 | 0.0 | 0.00 | 0.00 | 0.00 | 63 | 1016.2 |
| 20260901043313 | 86 | 242 | 0.0 | 1.0 | 0.00 | 0.00 | 0.00 | 62 | 1016.2 |
| 20260901042812 | 86 | 37 | 0.0 | 0.0 | 0.00 | 0.00 | 0.00 | 61 | 1016.3 |
| 20260901042307 | 86 | 229 | 0.0 | 0.0 | 0.00 | 0.00 | 0.00 | 60 | 1016.2 |
| 20260901041803 | 86 | 55 | 0.0 | 1.0 | 0.00 | 0.00 | 0.00 | 60 | 1016.3 |
| 20260901041258 | 86 | 338 | 0.0 | 1.0 | 0.00 | 0.00 | 0.00 | 59 | 1016.1 |
| 20260901040755 | 86 | 25 | 0.0 | 0.0 | 0.00 | 0.00 | 0.00 | 59 | 1016.1 |
| 20260901040251 | 86 | 6 | 0.0 | 0.0 | 0.00 | 0.00 | 0.00 | 58 | 1016.2 |
| 20260901035750 | 87 | 304 | 0.0 | 0.0 | 0.00 | 0.00 | 0.00 | 57 | 1016.2 |
| 20260901035249 | 87 | 13 | 0.0 | 1.0 | 0.00 | 0.00 | 0.00 | 57 | 1016.0 |
| 20260901034748 | 87 | 15 | 0.0 | 0.0 | 0.00 | 0.00 | 0.00 | 56 | 1015.9 |
| 20260901034243 | 87 | 29 | 0.0 | 1.0 | 0.00 | 0.00 | 0.00 | 55 | 1016.0 |
| 20260901033743 | 87 | 17 | 0.0 | 1.0 | 0.00 | 0.00 | 0.00 | 55 | 1016.0 |
| 20260901033243 | 88 | 352 | 0.0 | 1.0 | 0.00 | 0.00 | 0.00 | 55 | 1016.1 |
| 20260901032741 | 88 | 29 | 0.0 | 0.0 | 0.00 | 0.00 | 0.00 | 54 | 1016.1 |
| 20260901032236 | 88 | 55 | 0.0 | 0.0 | 0.00 | 0.00 | 0.00 | 55 | 1015.9 |
| 20260901031731 | 88 | 310 | 0.0 | 1.0 | 0.00 | 0.00 | 0.00 | 53 | 1015.8 |
| 20260901031227 | 88 | 40 | 0.0 | 1.0 | 0.00 | 0.00 | 0.00 | 53 | 1015.8 |
| 20260901030727 | 89 | 25 | 0.0 | 2.0 | 0.00 | 0.00 | 0.00 | 53 | 1015.7 |
| 20260901030223 | 89 | 22 | 0.0 | 2.0 | 0.00 | 0.00 | 0.00 | 51 | 1015.7 |
| 20260901025722 | 89 | 275 | 0.0 | 1.0 | 0.00 | 0.00 | 0.00 | 50 | 1015.7 |
| 20260901025217 | 89 | 28 | 1.0 | 1.0 | 0.00 | 0.00 | 0.00 | 52 | 1015.5 |
| 20260901024717 | 89 | 45 | 0.0 | 2.0 | 0.00 | 0.00 | 0.00 | 53 | 1015.5 |
| 20260901024216 | 89 | 210 | 1.0 | 2.0 | 0.00 | 0.00 | 0.00 | 50 | 1015.5 |
| 20260901023714 | 89 | 5 | 0.0 | 1.0 | 0.00 | 0.00 | 0.00 | 51 | 1015.2 |
| 20260901023210 | 89 | 37 | 0.0 | 0.0 | 0.00 | 0.00 | 0.00 | 49 | 1015.1 |
| 20260901022705 | 89 | 32 | 0.0 | 0.0 | 0.00 | 0.00 | 0.00 | 49 | 1015.0 |
| 20260901022200 | 89 | 242 | 0.0 | 0.0 | 0.00 | 0.00 | 0.00 | 48 | 1015.0 |
| 20260901021656 | 89 | 44 | 0.0 | 0.0 | 0.00 | 0.00 | 0.00 | 48 | 1014.9 |
| 20260901021151 | 89 | 352 | 0.0 | 0.0 | 0.00 | 0.00 | 0.00 | 50 | 1014.8 |
| 20260901020647 | 89 | 352 | 0.0 | 1.0 | 0.00 | 0.00 | 0.00 | 48 | 1014.8 |
| 20260901020142 | 89 | 15 | 0.0 | 1.0 | 0.00 | 0.00 | 0.00 | 51 | 1014.5 |
| 20260901015642 | 89 | 37 | 0.0 | 0.0 | 0.00 | 0.00 | 0.00 | 46 | 1014.5 |
| 20260901015142 | 90 | 37 | 0.0 | 2.0 | 0.00 | 0.00 | 0.00 | 47 | 1014.3 |
| 20260901014643 | 90 | 297 | 0.0 | 0.0 | 0.00 | 0.00 | 0.00 | 46 | 1014.3 |
| 20260901014139 | 90 | 322 | 0.0 | 0.0 | 0.00 | 0.00 | 0.00 | 45 | 1014.3 |
| 20260901013635 | 90 | 322 | 0.0 | 0.0 | 0.00 | 0.00 | 0.00 | 46 | 1014.3 |
| 20260901013131 | 90 | 37 | 0.0 | 0.0 | 0.00 | 0.00 | 0.00 | 46 | 1014.4 |
| 20260901012630 | 91 | 37 | 0.0 | 0.0 | 0.00 | 0.00 | 0.00 | 44 | 1014.3 |
| 20260901012125 | 91 | 37 | 0.0 | 0.0 | 0.00 | 0.00 | 0.00 | 45 | 1014.2 |
| 20260901011622 | 91 | 326 | 0.0 | 0.0 | 0.00 | 0.00 | 0.00 | 44 | 1014.1 |
| 20260901011120 | 92 | 129 | 0.0 | 1.0 | 0.00 | 0.00 | 0.00 | 44 | 1014.0 |
| 20260901010616 | 92 | 336 | 0.0 | 0.0 | 0.00 | 0.00 | 0.00 | 44 | 1014.1 |
| 20260901010115 | 93 | 336 | 0.0 | 1.0 | 0.00 | 0.00 | 0.00 | 44 | 1014.1 |
| 20260901005614 | 93 | 326 | 0.0 | 0.0 | 0.00 | 0.00 | 0.00 | 45 | 1013.9 |
| 20260901005110 | 93 | 0 | 0.0 | 1.0 | 0.00 | 0.00 | 0.00 | 42 | 1014.0 |
| 20260901004609 | 93 | 322 | 0.0 | 0.0 | 0.00 | 0.00 | 0.00 | 42 | 1013.9 |
| 20260901004104 | 93 | 212 | 2.0 | 2.0 | 0.00 | 0.00 | 0.00 | 41 | 1014.0 |
| 20260901003559 | 94 | 62 | 0.0 | 0.0 | 0.00 | 0.00 | 0.00 | 42 | 1013.9 |
| 20260901003057 | 94 | 22 | 0.0 | 1.0 | 0.00 | 0.00 | 0.00 | 41 | 1014.0 |
| 20260901002552 | 94 | 13 | 0.0 | 0.0 | 0.00 | 0.00 | 0.00 | 41 | 1013.9 |
| 20260901002047 | 95 | 13 | 0.0 | 0.0 | 0.00 | 0.00 | 0.00 | 39 | 1013.9 |
| 20260901001542 | 95 | 13 | 0.0 | 0.0 | 0.00 | 0.00 | 0.00 | 40 | 1013.9 |
| 20260901001037 | 95 | 217 | 0.0 | 0.0 | 0.00 | 0.00 | 0.00 | 41 | 1013.8 |
| 20260901000532 | 95 | 15 | 0.0 | 1.0 | 0.00 | 0.00 | 0.00 | 41 | 1013.8 |
| 20260901000028 | 96 | 4 | 0.0 | 0.0 | 0.00 | 0.00 | 0.00 | 39 | 1013.9 |
| 20260831235521 | 96 | 0 | 0.0 | 1.0 | 0.00 | 0.00 | 0.00 | 38 | 1013.8 |
| 20260831235017 | 95 | 0 | 0.0 | 0.0 | 0.00 | 0.00 | 0.00 | 38 | 1013.8 |
| 20260831234516 | 95 | 322 | 0.0 | 1.0 | 0.00 | 0.00 | 0.00 | 39 | 1013.7 |
| 20260831234013 | 96 | 297 | 0.0 | 1.0 | 0.00 | 0.00 | 0.00 | 38 | 1013.9 |
| 20260831233507 | 96 | 327 | 1.0 | 1.0 | 0.00 | 0.00 | 0.00 | 38 | 1013.9 |
| 20260831233003 | 96 | 212 | 0.0 | 2.0 | 0.00 | 0.00 | 0.00 | 39 | 1013.8 |
| 20260831232458 | 96 | 25 | 0.0 | 1.0 | 0.00 | 0.00 | 0.00 | 39 | 1013.7 |
| 20260831231954 | 97 | 321 | 0.0 | 1.0 | 0.00 | 0.00 | 0.00 | 38 | 1013.9 |
| 20260831231450 | 97 | 315 | 0.0 | 1.0 | 0.00 | 0.00 | 0.00 | 37 | 1013.8 |
| 20260831230946 | 98 | 256 | 0.0 | 1.0 | 0.00 | 0.00 | 0.00 | 37 | 1014.0 |
| 20260831230441 | 99 | 17 | 2.0 | 3.0 | 0.00 | 0.00 | 0.00 | 37 | 1013.9 |
| 20260831225940 | 99 | 344 | 0.0 | 2.0 | 0.00 | 0.00 | 0.00 | 37 | 1014.0 |
| 20260831225437 | 99 | 331 | 0.0 | 2.0 | 0.00 | 0.00 | 0.00 | 37 | 1013.9 |
| 20260831224931 | 99 | 316 | 2.0 | 2.0 | 0.00 | 0.00 | 0.00 | 38 | 1013.9 |
| 20260831224431 | 99 | 280 | 0.0 | 1.0 | 0.00 | 0.00 | 0.00 | 38 | 1013.8 |
| 20260831223926 | 99 | 284 | 0.0 | 3.0 | 0.00 | 0.00 | 0.00 | 38 | 1014.0 |
| 20260831223421 | 99 | 166 | 0.0 | 2.0 | 0.00 | 0.00 | 0.00 | 38 | 1013.9 |
| 20260831222918 | 99 | 250 | 1.0 | 2.0 | 0.00 | 0.00 | 0.00 | 38 | 1013.9 |
| 20260831222414 | 99 | 269 | 0.0 | 1.0 | 0.00 | 0.00 | 0.00 | 38 | 1014.1 |
| 20260831221908 | 98 | 357 | 0.0 | 1.0 | 0.00 | 0.00 | 0.00 | 39 | 1014.1 |
| 20260831221404 | 97 | 282 | 0.0 | 2.0 | 0.00 | 0.00 | 0.00 | 39 | 1014.1 |
| 20260831220859 | 97 | 336 | 0.0 | 1.0 | 0.00 | 0.00 | 0.00 | 39 | 1014.1 |
| 20260831220355 | 97 | 275 | 0.0 | 1.0 | 0.00 | 0.00 | 0.00 | 40 | 1014.2 |
| 20260831215850 | 98 | 21 | 0.0 | 2.0 | 0.00 | 0.00 | 0.00 | 40 | 1014.3 |
| 20260831215345 | 100 | 230 | 2.0 | 2.0 | 0.00 | 0.00 | 0.00 | 39 | 1014.4 |
| 20260831214842 | 100 | 323 | 1.0 | 2.0 | 0.00 | 0.00 | 0.00 | 38 | 1014.4 |
| 20260831214339 | 100 | 310 | 0.0 | 2.0 | 0.00 | 0.00 | 0.00 | 37 | 1014.5 |
| 20260831213839 | 100 | 5 | 0.0 | 2.0 | 0.00 | 0.00 | 0.00 | 38 | 1014.5 |
| 20260831213336 | 100 | 15 | 0.0 | 2.0 | 0.00 | 0.00 | 0.00 | 39 | 1014.5 |
| 20260831212831 | 99 | 34 | 1.0 | 2.0 | 0.00 | 0.00 | 0.00 | 38 | 1014.5 |
| 20260831212328 | 100 | 354 | 0.0 | 3.0 | 0.00 | 0.00 | 0.00 | 38 | 1014.6 |
| 20260831211826 | 100 | 15 | 1.0 | 2.0 | 0.00 | 0.00 | 0.00 | 39 | 1015.0 |
| 20260831211321 | 101 | 331 | 2.0 | 3.0 | 0.00 | 0.00 | 0.00 | 38 | 1014.9 |
| 20260831210821 | 102 | 306 | 2.0 | 2.0 | 0.00 | 0.00 | 0.00 | 38 | 1015.0 |
| 20260831210317 | 104 | 19 | 1.0 | 2.0 | 0.00 | 0.00 | 0.00 | 37 | 1015.0 |
| 20260831205812 | 103 | 233 | 0.0 | 2.0 | 0.00 | 0.00 | 0.00 | 37 | 1015.1 |
| 20260831205308 | 102 | 329 | 0.0 | 4.0 | 0.00 | 0.00 | 0.00 | 37 | 1015.1 |
| 20260831204807 | 101 | 300 | 0.0 | 2.0 | 0.00 | 0.00 | 0.00 | 38 | 1015.3 |
| 20260831204307 | 100 | 331 | 1.0 | 1.0 | 0.00 | 0.00 | 0.00 | 39 | 1015.5 |
| 20260831203806 | 102 | 315 | 0.0 | 1.0 | 0.00 | 0.00 | 0.00 | 37 | 1015.5 |
| 20260831203301 | 104 | 25 | 0.0 | 2.0 | 0.00 | 0.00 | 0.00 | 36 | 1015.5 |
| 20260831202759 | 103 | 209 | 0.0 | 2.0 | 0.00 | 0.00 | 0.00 | 38 | 1015.8 |
| 20260831202255 | 104 | 10 | 0.0 | 2.0 | 0.00 | 0.00 | 0.00 | 37 | 1015.7 |
| 20260831201754 | 104 | 66 | 0.0 | 2.0 | 0.00 | 0.00 | 0.00 | 38 | 1015.8 |
| 20260831201253 | 104 | 1 | 2.0 | 3.0 | 0.00 | 0.00 | 0.00 | 38 | 1015.9 |
| 20260831200749 | 105 | 359 | 0.0 | 2.0 | 0.00 | 0.00 | 0.00 | 37 | 1016.1 |
| 20260831200244 | 103 | 229 | 0.0 | 2.0 | 0.00 | 0.00 | 0.00 | 38 | 1016.1 |
| 20260831195739 | 100 | 122 | 0.0 | 2.0 | 0.00 | 0.00 | 0.00 | 40 | 1016.1 |
| 20260831195235 | 100 | 230 | 1.0 | 2.0 | 0.00 | 0.00 | 0.00 | 40 | 1016.3 |
| 20260831194730 | 98 | 139 | 0.0 | 2.0 | 0.00 | 0.00 | 0.00 | 42 | 1016.4 |
| 20260831194226 | 102 | 36 | 0.0 | 2.0 | 0.00 | 0.00 | 0.00 | 39 | 1016.4 |
| 20260831193719 | 101 | 22 | 1.0 | 2.0 | 0.00 | 0.00 | 0.00 | 39 | 1016.4 |
| 20260831193214 | 101 | 336 | 2.0 | 2.0 | 0.00 | 0.00 | 0.00 | 40 | 1016.4 |
| 20260831192710 | 102 | 224 | 0.0 | 2.0 | 0.00 | 0.00 | 0.00 | 40 | 1016.5 |
| 20260831192205 | 103 | 252 | 0.0 | 1.0 | 0.00 | 0.00 | 0.00 | 38 | 1016.8 |
| 20260831191700 | 102 | 288 | 1.0 | 3.0 | 0.00 | 0.00 | 0.00 | 38 | 1016.8 |
| 20260831191156 | 102 | 28 | 1.0 | 2.0 | 0.00 | 0.00 | 0.00 | 39 | 1016.7 |
| 20260831190651 | 100 | 312 | 1.0 | 2.0 | 0.00 | 0.00 | 0.00 | 41 | 1016.8 |
| 20260831190151 | 102 | 334 | 0.0 | 2.0 | 0.00 | 0.00 | 0.00 | 39 | 1017.1 |
| 20260831185646 | 100 | 348 | 2.0 | 2.0 | 0.00 | 0.00 | 0.00 | 41 | 1016.9 |
| 20260831185141 | 100 | 347 | 0.0 | 3.0 | 0.00 | 0.00 | 0.00 | 43 | 1017.0 |
| 20260831184635 | 98 | 175 | 0.0 | 2.0 | 0.00 | 0.00 | 0.00 | 45 | 1017.2 |
| 20260831184131 | 99 | 302 | 2.0 | 2.0 | 0.00 | 0.00 | 0.00 | 43 | 1017.2 |
| 20260831183630 | 99 | 284 | 0.0 | 2.0 | 0.00 | 0.00 | 0.00 | 42 | 1017.2 |
| 20260831183129 | 97 | 336 | 3.0 | 3.0 | 0.00 | 0.00 | 0.00 | 46 | 1017.1 |
| 20260831182629 | 98 | 98 | 0.0 | 3.0 | 0.00 | 0.00 | 0.00 | 45 | 1017.2 |
| 20260831182125 | 99 | 311 | 2.0 | 3.0 | 0.00 | 0.00 | 0.00 | 43 | 1017.3 |
| 20260831181625 | 98 | 293 | 0.0 | 3.0 | 0.00 | 0.00 | 0.00 | 46 | 1017.3 |
| 20260831181119 | 98 | 53 | 0.0 | 3.0 | 0.00 | 0.00 | 0.00 | 45 | 1017.4 |
| 20260831180614 | 97 | 215 | 2.0 | 3.0 | 0.00 | 0.00 | 0.00 | 48 | 1017.5 |
| 20260831180109 | 98 | 8 | 0.0 | 2.0 | 0.00 | 0.00 | 0.00 | 47 | 1017.5 |
| 20260831175604 | 97 | 110 | 0.0 | 2.0 | 0.00 | 0.00 | 0.00 | 47 | 1017.3 |
| 20260831175101 | 98 | 233 | 0.0 | 2.0 | 0.00 | 0.00 | 0.00 | 46 | 1017.5 |
| 20260831174556 | 96 | 0 | 2.0 | 2.0 | 0.00 | 0.00 | 0.00 | 49 | 1018.0 |
| 20260831174056 | 95 | 69 | 0.0 | 3.0 | 0.00 | 0.00 | 0.00 | 51 | 1017.9 |
| 20260831173554 | 95 | 22 | 0.0 | 1.0 | 0.00 | 0.00 | 0.00 | 52 | 1017.8 |
| 20260831173051 | 93 | 50 | 0.0 | 3.0 | 0.00 | 0.00 | 0.00 | 54 | 1018.0 |
| 20260831172545 | 95 | 326 | 0.0 | 2.0 | 0.00 | 0.00 | 0.00 | 53 | 1018.0 |
| 20260831172045 | 93 | 288 | 0.0 | 3.0 | 0.00 | 0.00 | 0.00 | 53 | 1018.1 |
| 20260831171541 | 94 | 189 | 0.0 | 2.0 | 0.00 | 0.00 | 0.00 | 53 | 1018.0 |
| 20260831171038 | 94 | 345 | 0.0 | 2.0 | 0.00 | 0.00 | 0.00 | 55 | 1018.0 |
| 20260831170533 | 92 | 104 | 1.0 | 1.0 | 0.00 | 0.00 | 0.00 | 56 | 1018.2 |
| 20260831170031 | 91 | 230 | 0.0 | 2.0 | 0.00 | 0.00 | 0.00 | 58 | 1018.4 |
| 20260831165531 | 90 | 15 | 2.0 | 3.0 | 0.00 | 0.00 | 0.00 | 60 | 1018.4 |
| 20260831165028 | 90 | 193 | 0.0 | 2.0 | 0.00 | 0.00 | 0.00 | 59 | 1018.4 |
| 20260831164523 | 89 | 52 | 0.0 | 0.0 | 0.00 | 0.00 | 0.00 | 62 | 1018.2 |
| 20260831164019 | 89 | 55 | 0.0 | 4.0 | 0.00 | 0.00 | 0.00 | 61 | 1018.3 |
| 20260831163514 | 88 | 48 | 2.0 | 2.0 | 0.00 | 0.00 | 0.00 | 62 | 1018.3 |
| 20260831163009 | 87 | 205 | 0.0 | 1.0 | 0.00 | 0.00 | 0.00 | 64 | 1018.3 |
| 20260831162503 | 88 | 75 | 1.0 | 2.0 | 0.00 | 0.00 | 0.00 | 62 | 1018.2 |
| 20260831162001 | 87 | 158 | 1.0 | 3.0 | 0.00 | 0.00 | 0.00 | 67 | 1018.2 |
| 20260831161458 | 87 | 139 | 1.0 | 2.0 | 0.00 | 0.00 | 0.00 | 66 | 1018.1 |
| 20260831160958 | 86 | 38 | 0.0 | 2.0 | 0.00 | 0.00 | 0.00 | 70 | 1018.3 |
| 20260831160458 | 86 | 195 | 0.0 | 2.0 | 0.00 | 0.00 | 0.00 | 69 | 1018.2 |
| 20260831155953 | 85 | 64 | 1.0 | 1.0 | 0.00 | 0.00 | 0.00 | 71 | 1018.2 |
| 20260831155448 | 85 | 78 | 1.0 | 2.0 | 0.00 | 0.00 | 0.00 | 71 | 1018.3 |
| 20260831154944 | 86 | 215 | 0.0 | 2.0 | 0.00 | 0.00 | 0.00 | 72 | 1018.2 |
| 20260831154440 | 86 | 14 | 0.0 | 2.0 | 0.00 | 0.00 | 0.00 | 71 | 1018.2 |
| 20260831153939 | 85 | 142 | 2.0 | 2.0 | 0.00 | 0.00 | 0.00 | 71 | 1018.2 |
| 20260831153434 | 85 | 22 | 0.0 | 3.0 | 0.00 | 0.00 | 0.00 | 71 | 1018.2 |
| 20260831152931 | 85 | 22 | 0.0 | 2.0 | 0.00 | 0.00 | 0.00 | 71 | 1018.2 |
| 20260831152426 | 85 | 10 | 1.0 | 2.0 | 0.00 | 0.00 | 0.00 | 72 | 1018.0 |
| 20260831151921 | 85 | 234 | 0.0 | 3.0 | 0.00 | 0.00 | 0.00 | 72 | 1018.1 |
| 20260831151420 | 85 | 12 | 1.0 | 2.0 | 0.00 | 0.00 | 0.00 | 73 | 1018.1 |
| 20260831150915 | 84 | 305 | 0.0 | 2.0 | 0.00 | 0.00 | 0.00 | 74 | 1018.0 |
| 20260831150410 | 84 | 57 | 0.0 | 3.0 | 0.00 | 0.00 | 0.00 | 75 | 1017.9 |
| 20260831145909 | 84 | 340 | 0.0 | 3.0 | 0.00 | 0.00 | 0.00 | 75 | 1017.8 |
| 20260831145406 | 84 | 18 | 0.0 | 3.0 | 0.00 | 0.00 | 0.00 | 76 | 1018.0 |
| 20260831144901 | 84 | 88 | 2.0 | 2.0 | 0.00 | 0.00 | 0.00 | 78 | 1017.9 |
| 20260831144357 | 83 | 159 | 0.0 | 3.0 | 0.00 | 0.00 | 0.00 | 78 | 1017.9 |
| 20260831143852 | 83 | 28 | 2.0 | 2.0 | 0.00 | 0.00 | 0.00 | 79 | 1017.8 |
| 20260831143347 | 82 | 322 | 1.0 | 4.0 | 0.00 | 0.00 | 0.00 | 80 | 1017.9 |
| 20260831142843 | 82 | 89 | 0.0 | 2.0 | 0.00 | 0.00 | 0.00 | 81 | 1017.7 |
| 20260831142338 | 82 | 250 | 1.0 | 3.0 | 0.00 | 0.00 | 0.00 | 81 | 1017.9 |
| 20260831141837 | 82 | 302 | 1.0 | 1.0 | 0.00 | 0.00 | 0.00 | 82 | 1017.7 |
| 20260831141332 | 82 | 50 | 0.0 | 2.0 | 0.00 | 0.00 | 0.00 | 83 | 1017.7 |
| 20260831140827 | 81 | 46 | 0.0 | 2.0 | 0.00 | 0.00 | 0.00 | 84 | 1017.5 |
| 20260831140321 | 81 | 56 | 2.0 | 4.0 | 0.00 | 0.00 | 0.00 | 84 | 1017.5 |
| 20260831135820 | 81 | 32 | 1.0 | 2.0 | 0.00 | 0.00 | 0.00 | 86 | 1017.5 |
| 20260831135315 | 81 | 88 | 2.0 | 2.0 | 0.00 | 0.00 | 0.00 | 85 | 1017.6 |
| 20260831134810 | 81 | 84 | 0.0 | 1.0 | 0.00 | 0.00 | 0.00 | 87 | 1017.5 |
| 20260831134308 | 80 | 45 | 0.0 | 1.0 | 0.00 | 0.00 | 0.00 | 88 | 1017.4 |
| 20260831133807 | 80 | 43 | 0.0 | 2.0 | 0.00 | 0.00 | 0.00 | 89 | 1017.4 |